Regional Weather Roundup
Issued by NWS

Home | Current Version | Previous Version | Text Only | Print | Product List | Glossary Off
Versions: 1 2 3 4 5 6 7 8 9 10 11 12 13 14 15 16 17 18 19 20 21 22 23 24 25 26 27 28 29 30 31 32 33 34 35 36 37 38 39 40 41 42 43 44 45 46 47 48 49 50

624
ASUS45 KBOU 201807
RWRCO

WEATHER ROUNDUP FOR COLORADO
NATIONAL WEATHER SERVICE DENVER/BOULDER CO
1100 AM MST FRI JAN 20 2017

NOTE: "FAIR" INDICATES FEW OR NO CLOUDS BELOW 12000 FEET WITH NO
SIGNIFICANT WEATHER AND/OR OBSTRUCTIONS TO VISIBILITY.

COZ001>005-013-030-031-201900-
...NORTHWEST COLORADO...

CITY           SKY/WX    TMP DP  RH WIND       PRES   REMARKS
CRAIG          LGT SNOW  27  23  85 W6        29.59S FOG     WCI  20
HAYDEN         CLOUDY    27  21  80 W9        29.57S WCI  17
MEEKER         LGT SNOW  24  22  91 CALM      29.58F FOG
MOUNT WERNER   NOT AVBL
STEAMBOAT SPGS CLOUDY    27  23  85 S3        29.56S
WALDEN           N/A     25  19  80 CALM      29.52S
$$

COZ006>008-011-201900-
...WEST CENTRAL VALLEYS...

CITY           SKY/WX    TMP DP  RH WIND       PRES   REMARKS
GRAND JUNCTION CLOUDY    33  33 100 N10       29.62F WCI  25
MONTROSE       CLOUDY    34  30  85 NE3       29.64S
EAGLE          CLOUDY    34  27  75 CALM      29.58S
RIFLE          CLOUDY    34  32  92 CALM      29.59S
DELTA          CLOUDY    35  34  98 NE3       29.64S FOG
NUCLA          CLOUDY    34  28  80 CALM      29.69F
$$

COZ017>023-064>068-201900-
...SOUTHWEST COLORADO...

CITY           SKY/WX    TMP DP  RH WIND       PRES   REMARKS
DURANGO        FLURRIES  28  24  85 SW8       29.70S WCI  20
CORTEZ         CLOUDY    32  28  85 S7        29.71S WCI  26
PAGOSA SPRINGS LGT SNOW  28  26  93 S8        29.68F WCI  20
TELLURIDE      CLOUDY    26  16  67 SE7       29.64S WCI  18
WOLF CREEK PAS CLOUDY    10  10 100 S25G35    29.61F WCI -10
$$

COZ009-010-012-014-032>034-037-058>063-201900-
...CENTRAL COLORADO...

CITY           SKY/WX    TMP DP  RH WIND       PRES   REMARKS
ASPEN          CLOUDY    29  25  85 N7        29.54S WCI  22
BUENA VISTA    PTSUNNY   32  19  58 CALM      29.50F
COPPER MTN     LGT SNOW  19  14  79 MISG      29.49S VSB 1
BERTHOUD PASS  NOT AVBL
COTTONWOOD PAS PTSUNNY   30  12  47 NW6G23    29.49F WCI  24
GUNNISON       FAIR      14  10  84 SE3       29.61F
KREMMLING      LGT SNOW  27  18  69 CALM      29.56F
LEADVILLE      LGT SNOW  21  15  78 NW10G18   29.50S VSB 3/4 WCI  10
MONARCH PASS   CLOUDY    12   9  85 SW24G38   29.59R WCI  -8
SALIDA         FAIR      36  17  46 SW18G26   29.58S
SUNLIGHT       SNOW      18  16  93 SW12      29.57F VSB 1/4 WCI   5
WILKERSON PASS CLOUDY    19  18  93 CALM      29.50S
$$

COZ069>075-201900-
...SAN LUIS VALLEY/SANGRE DE CRISTO MOUNTAINS...

CITY           SKY/WX    TMP DP  RH WIND       PRES   REMARKS
ALAMOSA        FAIR      19  14  81 CALM      29.59F
LA VETA PASS   FAIR      19  16  86 NE29G45   29.49S WCI   1
SAGUACHE       CLOUDY    25  21  86 S7        29.59F WCI  17
$$

COZ035-036-038>040-201900-
...NORTHERN COLORADO FRONT RANGE...

CITY           SKY/WX    TMP DP  RH WIND       PRES   REMARKS
DENVER INTL AP CLOUDY    36  32  85 SW8       29.45F
DMNS CITY PARK   N/A     40  28  62 SE7G13    29.44F
AURORA         CLOUDY    36  28  74 SE3       29.46F
FRONT RANGE AP LGT SNOW  37  34  87 S6        29.46F
ERIE MUNI ARPT PTSUNNY   41  28  61 CALM      29.45F
BOULDER MUN AP CLOUDY    41  27  56 SE5       29.44F
CENTENNIAL     PTSUNNY   35  30  82 S6        29.45F WCI  30
BROOMFIELD     PTSUNNY   39  28  65 CALM      29.46F
FORT COLLINS   FAIR      41  28  60 S6        29.45F
LONGMONT       CLOUDY    43  26  52 CALM      29.46F
$$

COZ041-046-047-076>085-087-088-201900-
...PIKES PEAK/PALMER DIVIDE AND SOUTHERN FOOTHILLS...

CITY           SKY/WX    TMP DP  RH WIND       PRES   REMARKS
COLO. SPRINGS  LGT SNOW  33  31  92 S6        29.47F VSB 3/4 WCI  28
A. F. ACADEMY  CLOUDY    34  28  79 NW6       29.45F WCI  29
SCHRIEVER AFB  NOT AVBL
ELLICOTT       LGT SNOW N/A N/A N/A CALM      29.46S
FALCON         CLOUDY    33  29  83 N6        29.47F WCI  28
FORT CARSON    LGT SNOW  34  32  93 S5        29.48F VSB 1   WCI  30
LIMON          CLOUDY    34  30  85 W8        29.45F WCI  27
MONUMENT HILL  CLOUDY    30  28  93 CALM      29.47F
TRINIDAD       CLOUDY    37  21  52 NW6       29.46F
$$

COZ042>045-048>051-090-091-201900-
...NORTHEAST COLORADO...

CITY           SKY/WX    TMP DP  RH WIND       PRES   REMARKS
GREELEY ARPT   FAIR      38  29  70 CALM      29.45F
AKRON          CLOUDY    36  29  75 NW10      29.43F
BURLINGTON     CLOUDY    39  30  70 N13       29.43S
WRAY           FAIR      43  32  65 NW10      29.43F
STERLING       CLOUDY    37  32  81 CALM      29.43F
HOLYOKE        FAIR      45  32  61 NW9G21    29.42F
FORT MORGAN    CLOUDY    37  30  77 SW5       29.44F
$$

COZ086-089-092>099-201900-
...SOUTHEAST COLORADO...

CITY           SKY/WX    TMP DP  RH WIND       PRES   REMARKS
PUEBLO         CLOUDY    39  32  76 NE10      29.47F
LA JUNTA       LGT RAIN  37  33  85 N5        29.48S
LAMAR          CLOUDY    33  30  88 W8        29.45F WCI  26
SPRINGFIELD      N/A     47  29  49 W13       29.43R
$$




USA.gov is the U.S. government's official web portal to all federal, state and local government web resources and services.